Showing default

KUIPER-00409, 68925

Orbit data source: Space-Track

KUIPER-00409, 68925 is a payload satellite owned by Kuiper Systems (US) in LEO that was launched on Thu, 30 Apr 2026 UTC via an ARIANE 64 launch vehicle from the French Guiana (FRGUI). Payload-class satellites include a variety of spacecraft equipped with specific instruments for various scientific and technological missions. These include communications satellites like Starlink; space stations such as the ISS; scientific satellites like the Hubble; Earth observation satellites from companies like Planet Labs, Umbra, and HawkEye 360; GPS; miniature CubeSats for education and research; and military/defense satellites.

Loading next visibility...
Identifier
68925, 2026-098G
Orbit
LEO
Country
Flag of USUS
Related business
Manufacturer
Kuiper Systems
Mission
Operational spacecraft
Bus & Motor
KUIPER, Unknown motor
Mass
~490 kg wet, ~490 kg dry
Launch date (UTC)
2026-04-30 (1 month ago)
Launch vehicle
ARIANE 64
Launch site
French Guiana (FRGUI)
Object type
Payload
Rocket body
Debris
Shape & HBR
Unknown
Radar Cross Section
Large (>1 m²)

Expand to show TLE details & history
Last TLE update: 3 days ago

TLE from 3 days ago
0 KUIPER-00409
1 68925U 26098G   26155.09219770  .00027973  00000-0  85725-3 0  9997
2 68925  51.8722 130.9775 0008101  98.3496 261.8408 15.33547578  5336
Epoch: 2026-06-04T02:12Z
TLE epoch observation values (Epoch: 2026-06-04T02:12:45.881Z)
Latitude
Longitude
-154.7551°
Altitude
466.791 km
Speed
7.634 km/s
True Right ascension
08h 43m 54s
True Declination
0° 00' 00"
Sunlit
Object was in daylight at epoch
Visualization orbit readout
Latitude
Unknown
Longitude
Unknown
Altitude
Unknown
Speed
Unknown
Apparent Right ascension
Unknown
Apparent Declination
Unknown
Sunlit
N/A
Visualization observer readout
Local Sidereal Time
02:56:41
Azimuth
Unknown
Elevation
Unknown
Doppler factor
Unknown
Orbital elements
Apogee altitude
471.249 km
Perigee altitude
460.16 km
Semi-major axis
6,843.841 km
Eccentricity
0.00081
Inclination
51.8722°
RAAN
130.9775°
Arg. of periapsis
98.3496°
True anomaly
261.74892°
Mean anomaly
261.8408°
Eccentric anomaly
261.79486°
Mean motion
3.83348 °/min
Orbital period
93.91 mins
BSTAR
0.00085725
Loading maneuver chart data...
Computing Atmospheric mass density...
Loading historical data...
Loading historical data...
Loading historical data...
Loading historical data...
Loading historical data...
Loading historical data...
Loading historical data...

Documentation

Showing up to 5 results
|